Preview of NWS' New Version of Forecast
This preview is not operational and should not be used for support decisions.

Regional Weather Roundup (RWR)

Issued by National Weather Service (NWS)

                            
000
ASUS43 KLSX 181057
RWRMO 

WEATHER SUMMARY FOR MISSOURI
NATIONAL WEATHER SERVICE SPRINGFIELD MO
600 AM CDT SAT MAY 18 2019

NOTE: "FAIR" INDICATES FEW OR NO CLOUDS BELOW 12,000 FEET WITH NO
       SIGNIFICANT WEATHER AND/OR OBSTRUCTIONS TO VISIBILITY.
       CURRENT SKY AND/OR WEATHER CONDITIONS ARE NOT AVAILABLE FOR
       CHILLICOTHE AND FARMINGTON.

MOZ001>031-035>038-043-044-053-054-181200-
...NORTHERN AND WESTERN MISSOURI...
  
CITY           SKY/WX    TMP DP  RH WIND       PRES   REMARKS
KANSAS CTY INT LGT RAIN  70  62  76 SW12      29.69R                  
LEE'S SUMMIT   CLOUDY    70  58  65 MISG      29.68S                  
ST JOSEPH      CLOUDY    66  61  84 W12       29.67F                  
CHILLICOTHE      N/A     71  58  63 S9        29.68F                  
     
$$
MOZ066>068-077>081-088>096-101>105-181200-
...SOUTHWEST MISSOURI...
  
CITY           SKY/WX    TMP DP  RH WIND       PRES   REMARKS
SPRINGFIELD    CLOUDY    69  57  65 S14       29.79R                  
JOPLIN         MOCLDY    72  63  73 S17G29    29.73S                  
               
$$
MOZ032>034-039>042-045>050-055>058-069>072-181200-
...CENTRAL MISSOURI...  
  
CITY           SKY/WX    TMP DP  RH WIND       PRES   REMARKS
COLUMBIA       NOT AVBL                                               
JEFFERSON CITY MOCLDY    69  57  65 SE7       29.78R                  
ROLLA          CLOUDY    70  56  61 S14G22    29.82S                  
SEDALIA        CLOUDY    66  56  70 S13       29.75R                  
WARRENSBURG    MOCLDY    70  57  64 S12       29.69F                  
               
$$
MOZ051-052-059>065-181200-
...EAST CENTRAL MISSOURI...
  
CITY           SKY/WX    TMP DP  RH WIND       PRES   REMARKS
ST LOUIS INTL  PTCLDY    69  58  67 S7        29.83S                  
                   
$$
MOZ072>076-082>087-097>100-106>115-181200-
...SOUTH CENTRAL AND SOUTHEAST MISSOURI...
  
CITY           SKY/WX    TMP DP  RH WIND       PRES   REMARKS
CAPE GIRARDEAU FAIR      69  61  75 S8        29.89R                  
POPLAR BLUFF   FAIR      63  62  97 CALM      29.88R                  
WEST PLAINS    PTCLDY    65  58  78 S5        29.87R                  
                                       
$$